Zurück zum Katalog

CZ-2D R/B

AktivLEO
NORAD 65853·ROCKET BODY·🇨🇳 China

Gestartet Sep 29, 2025 von Xichang Satellite Launch Center

Loading…

Nächste Überflüge (nächste 24 Stunden)

TLE

AktuellSource: Space-Track

Epoche: Sep 14, 2026, 12:02 UTC

1 65853U 25222C   26257.50187531  .00001808  00000-0  13719-3 0  9993
2 65853  34.9026  58.8844 0053655 157.6293 202.6768 15.00864067 52653

Verfolge CZ-2D R/B in Echtzeit mit AllMySat

Download on the App Store